Find Starlink 30421

NORAD ID: 58107 Int'l Des: 2023-161 Owner: SPXS Country: US Constellation: starlink operational
LEOCIRCULAR

現在のビュー

3D地球を読み込み中...

About Starlink 30421

Starlink 30421 (NORAD 58107) is a starlink constellation satellite (v2 mini) launched Oct 21, 2023 by SPXS of US. It operates in LEO, CIRCULAR orbit with a mass of 730.00 kg.

Starlink 30421について

説明を読み込み中...

次回通過

Passes for default location (London). Set your location on the main map for personalized predictions.

高度履歴

Loading altitude history...

軌道要素

1 58107U 23161L 26173.32082377 -.00002605 00000-0 -65990-4 0 9993
2 58107 53.1614 24.9675 0001551 97.2662 262.8517 15.34392582150649
Epoch: Jun 22, 2026 • Age: 25 hours

現在のステータス

高度 468.1 km
速度 7.64 km/s
衛星直下点 52.65°N, 73.92°E
打ち上げ日 Oct 21, 2023
運用期間 2.6 years
タイプ internet

技術仕様

分類 Payload
質量 730.00 kg
乾燥質量 700.00 kg
総質量 730.00 kg
長さ 0.30 m
直径 4.10 m
スパン 29.00 m
形状 Box + pan
製造者 SPXS
バスタイプ Starlink V2M
フェーズステータス In Orbit
所有者/国 SPXS/US

Most Searched